,,,PA_Meas_PMT16A,,PR_Meas_QMR101_102,,RH_Meas_QMH101,,SR_Meas_QMS101,,TA_Meas_QMH101,,GenWind,,GenWind,
date,time,status,PA,status,PR,status,RH,status,SR,status,TA,status,DirAvg,status,SpdAvg,
2012-12-06, 00:00:04,VALID,1010.64,VALID,0,VALID,104,VALID,0,VALID,22.9519,VALID,77,VALID,0,
2012-12-06, 00:01:04,VALID,1010.62,VALID,0,VALID,104,VALID,0,VALID,22.9926,VALID,77,VALID,0.134375,
2012-12-06, 00:02:04,VALID,1010.65,VALID,0,VALID,104,VALID,0,VALID,22.9731,VALID,77,VALID,0,
2012-12-06, 00:03:04,VALID,1010.62,VALID,0,VALID,104,VALID,0,VALID,22.9731,VALID,77,VALID,0,
2012-12-06, 00:04:04,VALID,1010.66,VALID,0,VALID,104,VALID,0,VALID,22.9926,VALID,77,VALID,0,
2012-12-06, 00:05:04,VALID,1010.58,VALID,0,VALID,104,VALID,0,VALID,22.9731,VALID,77,VALID,0,
2012-12-06, 00:06:04,VALID,1010.57,VALID,0,VALID,104,VALID,0,VALID,22.9519,VALID,77,VALID,0,
2012-12-06, 00:07:04,VALID,1010.53,VALID,0,VALID,104,VALID,0,VALID,22.9731,VALID,77,VALID,0,
2012-12-06, 00:08:04,VALID,1010.5,VALID,0,VALID,104,VALID,0,VALID,22.9731,VALID,77,VALID,0,
2012-12-06, 00:09:04,VALID,1010.48,VALID,0,VALID,104,VALID,0,VALID,22.9926,VALID,77,VALID,0,
2012-12-06, 00:10:04,VALID,1010.43,VALID,0,VALID,104,VALID,0,VALID,22.9731,VALID,77,VALID,0.05625,
2012-12-06, 00:11:04,VALID,1010.39,VALID,0,VALID,104,VALID,0,VALID,22.9926,VALID,77,VALID,0,
2012-12-06, 00:12:04,VALID,1010.36,VALID,0,VALID,104,VALID,0,VALID,22.9926,VALID,77,VALID,0,
2012-12-06, 00:13:04,VALID,1010.34,VALID,0,VALID,104,VALID,0.112112,VALID,22.9926,VALID,77,VALID,0.137109,
2012-12-06, 00:14:04,VALID,1010.35,VALID,0,VALID,104,VALID,0,VALID,22.9926,VALID,77,VALID,0,
2012-12-06, 00:15:04,VALID,1010.33,VALID,0,VALID,104,VALID,0,VALID,22.9926,VALID,77,VALID,0,
2012-12-06, 00:16:04,VALID,1010.3,VALID,0,VALID,104,VALID,0,VALID,22.9926,VALID,77,VALID,0,
2012-12-06, 00:17:04,VALID,1010.3,VALID,0,VALID,104,VALID,0,VALID,22.9926,VALID,77,VALID,0,
2012-12-06, 00:18:04,VALID,1010.27,VALID,0,VALID,104,VALID,0,VALID,22.9909,VALID,77,VALID,0.104297,
2012-12-06, 00:19:04,VALID,1010.27,VALID,0,VALID,104,VALID,0,VALID,23.0316,VALID,77,VALID,0.295703,
2012-12-06, 00:20:04,VALID,1010.27,VALID,0,VALID,104,VALID,0,VALID,23.0493,VALID,77,VALID,0.272656,
2012-12-06, 00:21:04,VALID,1010.27,VALID,0,VALID,104,VALID,0,VALID,23.0511,VALID,77,VALID,0.170312,
2012-12-06, 00:22:04,VALID,1010.25,VALID,0,VALID,104,VALID,0,VALID,23.0511,VALID,77,VALID,0.233984,
2012-12-06, 00:23:04,VALID,1010.21,VALID,0,VALID,104,VALID,0,VALID,23.09,VALID,77,VALID,0.0859375,
2012-12-06, 00:24:04,VALID,1010.21,VALID,0,VALID,104,VALID,0,VALID,23.0511,VALID,77,VALID,0,
2012-12-06, 00:25:04,VALID,1010.2,VALID,0,VALID,104,VALID,0,VALID,23.0511,VALID,77,VALID,0,
2012-12-06, 00:26:04,VALID,1010.16,VALID,0,VALID,104,VALID,0,VALID,23.0705,VALID,77,VALID,0,
2012-12-06, 00:27:04,VALID,1010.15,VALID,0,VALID,104,VALID,0,VALID,23.0511,VALID,77,VALID,0,
2012-12-06, 00:28:04,VALID,1010.11,VALID,0,VALID,104,VALID,0,VALID,23.0316,VALID,77,VALID,0,
2012-12-06, 00:29:04,VALID,1010.16,VALID,0,VALID,104,VALID,0,VALID,23.0121,VALID,77,VALID,0,
2012-12-06, 00:30:04,VALID,1010.13,VALID,0,VALID,104,VALID,0,VALID,22.9731,VALID,77,VALID,0,
2012-12-06, 00:31:04,VALID,1010.15,VALID,0,VALID,104,VALID,0,VALID,22.9342,VALID,77,VALID,0,
2012-12-06, 00:32:04,VALID,1010.16,VALID,0,VALID,104,VALID,0,VALID,22.9342,VALID,77,VALID,0,
2012-12-06, 00:33:04,VALID,1010.13,VALID,0,VALID,104,VALID,0,VALID,22.9147,VALID,77,VALID,0,
2012-12-06, 00:34:04,VALID,1010.14,VALID,0,VALID,104,VALID,0,VALID,22.9147,VALID,77,VALID,0,
2012-12-06, 00:35:04,VALID,1010.13,VALID,0,VALID,104,VALID,0,VALID,22.8952,VALID,77,VALID,0,
2012-12-06, 00:36:04,VALID,1010.13,VALID,0,VALID,104,VALID,0,VALID,22.8952,VALID,77,VALID,0,
2012-12-06, 00:37:04,VALID,1010.14,VALID,0,VALID,104,VALID,0,VALID,22.874,VALID,77,VALID,0,
2012-12-06, 00:38:04,VALID,1010.1,VALID,0,VALID,104,VALID,0,VALID,22.8952,VALID,77,VALID,0,
2012-12-06, 00:39:04,VALID,1010.11,VALID,0,VALID,104,VALID,0,VALID,22.9129,VALID,77,VALID,0.0742188,
2012-12-06, 00:40:04,VALID,1010.08,VALID,0,VALID,104,VALID,0.112112,VALID,22.9342,VALID,77,VALID,0.522656,
2012-12-06, 00:41:04,VALID,1010.08,VALID,0,VALID,104,VALID,0,VALID,22.9342,VALID,77,VALID,0.424219,
2012-12-06, 00:42:04,VALID,1010.07,VALID,0,VALID,104,VALID,0,VALID,22.9749,VALID,77,VALID,0.257813,
2012-12-06, 00:43:04,VALID,1010.07,VALID,0,VALID,104,VALID,0,VALID,22.9731,VALID,77,VALID,0.215625,
2012-12-06, 00:44:04,VALID,1010.07,VALID,0,VALID,104,VALID,0,VALID,22.9536,VALID,77,VALID,0.302344,
2012-12-06, 00:45:04,VALID,1010.06,VALID,0,VALID,104,VALID,0,VALID,22.9536,VALID,77,VALID,0.333203,
2012-12-06, 00:46:04,VALID,1010.03,VALID,0,VALID,104,VALID,0,VALID,22.9342,VALID,77,VALID,0.335938,
2012-12-06, 00:47:04,VALID,1010.04,VALID,0,VALID,104,VALID,0,VALID,22.9342,VALID,77,VALID,0.257422,
2012-12-06, 00:48:04,VALID,1010.02,VALID,0,VALID,104,VALID,0,VALID,22.9536,VALID,76,VALID,0.198828,
2012-12-06, 00:49:04,VALID,1010.01,VALID,0,VALID,104,VALID,0,VALID,22.9536,VALID,77,VALID,0,
2012-12-06, 00:50:04,VALID,1010.01,VALID,0,VALID,104,VALID,0,VALID,22.9536,VALID,77,VALID,0,
2012-12-06, 00:51:04,VALID,1010.01,VALID,0,VALID,104,VALID,0,VALID,22.9731,VALID,103,VALID,0.530859,
2012-12-06, 00:52:04,VALID,1010,VALID,0,VALID,104,VALID,0,VALID,22.9731,VALID,103,VALID,0.674609,
2012-12-06, 00:53:04,VALID,1009.97,VALID,0,VALID,104,VALID,0,VALID,22.9519,VALID,103,VALID,0.364453,
2012-12-06, 00:54:04,VALID,1009.92,VALID,0,VALID,104,VALID,0,VALID,22.9129,VALID,103,VALID,0.410937,
2012-12-06, 00:55:04,VALID,1009.9,VALID,0,VALID,104,VALID,0,VALID,22.9129,VALID,103,VALID,0.4875,
2012-12-06, 00:56:04,VALID,1009.89,VALID,0,VALID,104,VALID,0,VALID,22.9342,VALID,103,VALID,0.405469,
2012-12-06, 00:57:04,VALID,1009.85,VALID,0,VALID,104,VALID,0,VALID,22.9342,VALID,103,VALID,0.157422,
2012-12-06, 00:58:04,VALID,1009.83,VALID,0,VALID,104,VALID,0,VALID,22.9147,VALID,103,VALID,0.274219,
2012-12-06, 00:59:04,VALID,1009.81,VALID,0,VALID,104,VALID,0,VALID,22.9147,VALID,103,VALID,0,
2012-12-06, 01:00:04,VALID,1009.8,VALID,0,VALID,104,VALID,0,VALID,22.9359,VALID,103,VALID,0.344531,
2012-12-06, 01:01:04,VALID,1009.76,VALID,0,VALID,104,VALID,0,VALID,22.8952,VALID,75,VALID,0.690234,
2012-12-06, 01:02:04,VALID,1009.75,VALID,0,VALID,104,VALID,0,VALID,22.8757,VALID,75,VALID,0.786328,
2012-12-06, 01:03:04,VALID,1009.74,VALID,0,VALID,104,VALID,0,VALID,22.8757,VALID,75,VALID,0.441016,
2012-12-06, 01:04:04,VALID,1009.76,VALID,0,VALID,104,VALID,0,VALID,22.8757,VALID,72,VALID,0.667969,
2012-12-06, 01:05:04,VALID,1009.76,VALID,0,VALID,104,VALID,0,VALID,22.8757,VALID,72,VALID,0.294141,
2012-12-06, 01:06:04,VALID,1009.76,VALID,0,VALID,104,VALID,0,VALID,22.8562,VALID,72,VALID,0.163672,
2012-12-06, 01:07:04,VALID,1009.76,VALID,0,VALID,104,VALID,0,VALID,22.8562,VALID,69,VALID,0.462109,
2012-12-06, 01:08:04,VALID,1009.7,VALID,0,VALID,104,VALID,0.112112,VALID,22.8155,VALID,68,VALID,0.3,
2012-12-06, 01:09:04,VALID,1009.7,VALID,0,VALID,104,VALID,0,VALID,22.8155,VALID,67,VALID,0.334375,
2012-12-06, 01:10:04,VALID,1009.7,VALID,0,VALID,104,VALID,0,VALID,22.7961,VALID,67,VALID,0.114063,
2012-12-06, 01:11:04,VALID,1009.7,VALID,0,VALID,104,VALID,0,VALID,22.8173,VALID,68,VALID,0.370313,
2012-12-06, 01:12:04,VALID,1009.7,VALID,0,VALID,104,VALID,0,VALID,22.7978,VALID,68,VALID,0.274219,
2012-12-06, 01:13:04,VALID,1009.7,VALID,0,VALID,104,VALID,0,VALID,22.7978,VALID,67,VALID,0.192188,
2012-12-06, 01:14:04,VALID,1009.71,VALID,0,VALID,104,VALID,0,VALID,22.7978,VALID,67,VALID,0.169922,
2012-12-06, 01:15:04,VALID,1009.67,VALID,0,VALID,104,VALID,0,VALID,22.7978,VALID,68,VALID,0.222266,
2012-12-06, 01:16:04,VALID,1009.59,VALID,0,VALID,104,VALID,0,VALID,22.7783,VALID,68,VALID,0.284766,
2012-12-06, 01:17:04,VALID,1009.58,VALID,0,VALID,104,VALID,0,VALID,22.7783,VALID,67,VALID,0,
2012-12-06, 01:18:04,VALID,1009.59,VALID,0,VALID,104,VALID,0,VALID,22.7571,VALID,68,VALID,0,
2012-12-06, 01:19:04,VALID,1009.56,VALID,0,VALID,104,VALID,0,VALID,22.7588,VALID,67,VALID,0,
2012-12-06, 01:20:04,VALID,1009.54,VALID,0,VALID,104,VALID,0,VALID,22.7588,VALID,67,VALID,0.13125,
2012-12-06, 01:21:04,VALID,1009.55,VALID,0,VALID,104,VALID,0,VALID,22.7394,VALID,68,VALID,0.0171875,
2012-12-06, 01:22:04,VALID,1009.55,VALID,0,VALID,104,VALID,0,VALID,22.7394,VALID,67,VALID,0,
2012-12-06, 01:23:04,VALID,1009.52,VALID,0,VALID,104,VALID,0,VALID,22.7199,VALID,68,VALID,0.381641,
2012-12-06, 01:24:04,VALID,1009.51,VALID,0,VALID,104,VALID,0,VALID,22.6987,VALID,67,VALID,0.148438,
2012-12-06, 01:25:04,VALID,1009.48,VALID,0,VALID,104,VALID,0,VALID,22.7004,VALID,67,VALID,0,
2012-12-06, 01:26:04,VALID,1009.47,VALID,0,VALID,104,VALID,0,VALID,22.7004,VALID,67,VALID,0,
2012-12-06, 01:27:04,VALID,1009.46,VALID,0,VALID,104,VALID,0,VALID,22.6792,VALID,67,VALID,0,
2012-12-06, 01:28:04,VALID,1009.42,VALID,0,VALID,104,VALID,0.112112,VALID,22.7004,VALID,67,VALID,0.00195313,
2012-12-06, 01:29:04,VALID,1009.41,VALID,0,VALID,104,VALID,0,VALID,22.6809,VALID,68,VALID,0,
2012-12-06, 01:30:04,VALID,1009.4,VALID,0,VALID,104,VALID,0,VALID,22.6614,VALID,68,VALID,0,
2012-12-06, 01:31:04,VALID,1009.37,VALID,0,VALID,104,VALID,0,VALID,22.6614,VALID,67,VALID,0,
2012-12-06, 01:32:04,VALID,1009.34,VALID,0,VALID,104,VALID,0,VALID,22.6809,VALID,67,VALID,0,
2012-12-06, 01:33:04,VALID,1009.33,VALID,0,VALID,104,VALID,0.112112,VALID,22.6792,VALID,68,VALID,0.277734,
2012-12-06, 01:34:04,VALID,1009.3,VALID,0,VALID,104,VALID,0,VALID,22.6792,VALID,67,VALID,0.475,
2012-12-06, 01:35:04,VALID,1009.29,VALID,0,VALID,104,VALID,0,VALID,22.6809,VALID,68,VALID,0.333203,
2012-12-06, 01:36:04,VALID,1009.3,VALID,0,VALID,104,VALID,0,VALID,22.6809,VALID,61,VALID,0.33125,
2012-12-06, 01:37:04,VALID,1009.29,VALID,0,VALID,104,VALID,0,VALID,22.6809,VALID,61,VALID,0,
2012-12-06, 01:38:04,VALID,1009.28,VALID,0,VALID,104,VALID,0,VALID,22.6597,VALID,61,VALID,0,
2012-12-06, 01:39:04,VALID,1009.27,VALID,0,VALID,104,VALID,0,VALID,22.6597,VALID,62,VALID,0,
2012-12-06, 01:40:04,VALID,1009.22,VALID,0,VALID,104,VALID,0,VALID,22.6597,VALID,61,VALID,0,
2012-12-06, 01:41:04,VALID,1009.22,VALID,0,VALID,104,VALID,0.112112,VALID,22.6614,VALID,61,VALID,0,
2012-12-06, 01:42:04,VALID,1009.21,VALID,0,VALID,104,VALID,0.112112,VALID,22.642,VALID,61,VALID,0,
2012-12-06, 01:43:04,VALID,1009.21,VALID,0,VALID,104,VALID,0,VALID,22.642,VALID,61,VALID,0,
2012-12-06, 01:44:04,VALID,1009.21,VALID,0,VALID,104,VALID,0.112112,VALID,22.6614,VALID,61,VALID,0,
2012-12-06, 01:45:04,VALID,1009.2,VALID,0,VALID,104,VALID,0,VALID,22.642,VALID,61,VALID,0,
2012-12-06, 01:46:04,VALID,1009.19,VALID,0,VALID,104,VALID,0.112112,VALID,22.6402,VALID,61,VALID,0,
2012-12-06, 01:47:04,VALID,1009.15,VALID,0,VALID,104,VALID,0.112112,VALID,22.6208,VALID,61,VALID,0,
2012-12-06, 01:48:04,VALID,1009.11,VALID,0,VALID,104,VALID,0,VALID,22.6225,VALID,61,VALID,0,
2012-12-06, 01:49:04,VALID,1009.09,VALID,0,VALID,104,VALID,0,VALID,22.642,VALID,61,VALID,0,
2012-12-06, 01:50:04,VALID,1009.09,VALID,0,VALID,104,VALID,0.112112,VALID,22.6208,VALID,62,VALID,0,
2012-12-06, 01:51:04,VALID,1009.07,VALID,0,VALID,104,VALID,0,VALID,22.642,VALID,61,VALID,0,
2012-12-06, 01:52:04,VALID,1009.05,VALID,0,VALID,104,VALID,0,VALID,22.6225,VALID,61,VALID,0,
2012-12-06, 01:53:04,VALID,1009.07,VALID,0,VALID,104,VALID,0.112112,VALID,22.5623,VALID,62,VALID,0,
2012-12-06, 01:54:04,VALID,1009.09,VALID,0,VALID,104,VALID,0.112112,VALID,22.5818,VALID,61,VALID,0,
2012-12-06, 01:55:04,VALID,1009.1,VALID,0,VALID,104,VALID,0,VALID,22.5818,VALID,61,VALID,0,
2012-12-06, 01:56:04,VALID,1009.1,VALID,0,VALID,104,VALID,0.112112,VALID,22.6225,VALID,61,VALID,0,
2012-12-06, 01:57:04,VALID,1009.09,VALID,0,VALID,104,VALID,0.112112,VALID,22.6225,VALID,61,VALID,0.230078,
2012-12-06, 01:58:04,VALID,1009.12,VALID,0,VALID,104,VALID,0.112112,VALID,22.6208,VALID,61,VALID,0.19375,
2012-12-06, 01:59:04,VALID,1009.11,VALID,0,VALID,104,VALID,0,VALID,22.6225,VALID,61,VALID,0.169922,
2012-12-06, 02:00:04,VALID,1009.08,VALID,0,VALID,104,VALID,0.112112,VALID,22.6225,VALID,61,VALID,0.205469,
2012-12-06, 02:01:04,VALID,1009.04,VALID,0,VALID,104,VALID,0,VALID,22.603,VALID,61,VALID,0.258203,
2012-12-06, 02:02:04,VALID,1009.04,VALID,0,VALID,104,VALID,0,VALID,22.5852,VALID,61,VALID,0.198047,
2012-12-06, 02:03:04,VALID,1009.05,VALID,0,VALID,104,VALID,0,VALID,22.5463,VALID,61,VALID,0,
2012-12-06, 02:04:04,VALID,1009.04,VALID,0,VALID,104,VALID,0,VALID,22.5268,VALID,61,VALID,0,
2012-12-06, 02:05:04,VALID,1009.01,VALID,0,VALID,104,VALID,0,VALID,22.4878,VALID,61,VALID,0,
2012-12-06, 02:06:04,VALID,1009,VALID,0,VALID,104,VALID,0,VALID,22.4472,VALID,61,VALID,0,
2012-12-06, 02:07:04,VALID,1008.98,VALID,0,VALID,104,VALID,0,VALID,22.4277,VALID,61,VALID,0,
2012-12-06, 02:08:04,VALID,1008.96,VALID,0,VALID,104,VALID,0,VALID,22.4294,VALID,62,VALID,0,
2012-12-06, 02:09:04,VALID,1008.94,VALID,0,VALID,104,VALID,0,VALID,22.4082,VALID,61,VALID,0.185937,
2012-12-06, 02:10:04,VALID,1008.91,VALID,0,VALID,104,VALID,0,VALID,22.4489,VALID,61,VALID,0.296484,
2012-12-06, 02:11:04,VALID,1008.93,VALID,0,VALID,104,VALID,0,VALID,22.4684,VALID,61,VALID,0.467578,
2012-12-06, 02:12:04,VALID,1008.9,VALID,0,VALID,104,VALID,0,VALID,22.5268,VALID,61,VALID,0.563281,
2012-12-06, 02:13:04,VALID,1008.9,VALID,0,VALID,104,VALID,0,VALID,22.4861,VALID,61,VALID,0.252344,
2012-12-06, 02:14:04,VALID,1008.88,VALID,0,VALID,104,VALID,0,VALID,22.5056,VALID,61,VALID,0.416797,
2012-12-06, 02:15:04,VALID,1008.89,VALID,0,VALID,104,VALID,0,VALID,22.5268,VALID,61,VALID,0.288281,
2012-12-06, 02:16:04,VALID,1008.88,VALID,0,VALID,104,VALID,0,VALID,22.5463,VALID,61,VALID,0,
2012-12-06, 02:17:04,VALID,1008.88,VALID,0,VALID,104,VALID,0,VALID,22.5446,VALID,62,VALID,0.546875,
2012-12-06, 02:18:04,VALID,1008.87,VALID,0,VALID,104,VALID,0,VALID,22.5463,VALID,61,VALID,0.300391,
2012-12-06, 02:19:04,VALID,1008.84,VALID,0,VALID,104,VALID,0,VALID,22.5658,VALID,61,VALID,0.270703,
2012-12-06, 02:20:04,VALID,1008.82,VALID,0,VALID,104,VALID,0,VALID,22.5463,VALID,61,VALID,0.122656,
2012-12-06, 02:21:04,VALID,1008.79,VALID,0,VALID,104,VALID,0,VALID,22.5268,VALID,61,VALID,0,
2012-12-06, 02:22:04,VALID,1008.77,VALID,0,VALID,104,VALID,0,VALID,22.5268,VALID,62,VALID,0,
2012-12-06, 02:23:04,VALID,1008.75,VALID,0,VALID,104,VALID,0,VALID,22.5073,VALID,62,VALID,0,
2012-12-06, 02:24:04,VALID,1008.76,VALID,0,VALID,104,VALID,0,VALID,22.4667,VALID,61,VALID,0,
2012-12-06, 02:25:04,VALID,1008.77,VALID,0,VALID,104,VALID,0,VALID,22.4684,VALID,61,VALID,0,
2012-12-06, 02:26:04,VALID,1008.78,VALID,0,VALID,104,VALID,0,VALID,22.4684,VALID,62,VALID,0,
2012-12-06, 02:27:04,VALID,1008.78,VALID,0,VALID,104,VALID,0,VALID,22.4294,VALID,62,VALID,0,
2012-12-06, 02:28:04,VALID,1008.77,VALID,0,VALID,104,VALID,0,VALID,22.4294,VALID,61,VALID,0,
2012-12-06, 02:29:04,VALID,1008.78,VALID,0,VALID,104,VALID,0,VALID,22.4099,VALID,61,VALID,0,
2012-12-06, 02:30:04,VALID,1008.81,VALID,0,VALID,104,VALID,0,VALID,22.3887,VALID,62,VALID,0,
2012-12-06, 02:31:04,VALID,1008.81,VALID,0,VALID,104,VALID,0,VALID,22.4294,VALID,61,VALID,0,
2012-12-06, 02:32:04,VALID,1008.8,VALID,0,VALID,104,VALID,0,VALID,22.4472,VALID,61,VALID,0.046875,
2012-12-06, 02:33:04,VALID,1008.78,VALID,0,VALID,104,VALID,0,VALID,22.4277,VALID,61,VALID,0.129688,
2012-12-06, 02:34:04,VALID,1008.78,VALID,0,VALID,104,VALID,0.112112,VALID,22.4277,VALID,62,VALID,0,
2012-12-06, 02:35:04,VALID,1008.78,VALID,0,VALID,104,VALID,0,VALID,22.4277,VALID,61,VALID,0.215234,
2012-12-06, 02:36:04,VALID,1008.77,VALID,0,VALID,104,VALID,0.112112,VALID,22.387,VALID,61,VALID,0.0117188,
2012-12-06, 02:37:04,VALID,1008.79,VALID,0,VALID,104,VALID,0,VALID,22.4082,VALID,61,VALID,0.271875,
2012-12-06, 02:38:04,VALID,1008.77,VALID,0,VALID,104,VALID,0,VALID,22.4082,VALID,62,VALID,0.0109375,
2012-12-06, 02:39:04,VALID,1008.78,VALID,0,VALID,104,VALID,0.112112,VALID,22.4082,VALID,61,VALID,0,
2012-12-06, 02:40:04,VALID,1008.73,VALID,0,VALID,104,VALID,0,VALID,22.3887,VALID,62,VALID,0.207813,
2012-12-06, 02:41:04,VALID,1008.74,VALID,0,VALID,104,VALID,0,VALID,22.3481,VALID,61,VALID,0.459766,
2012-12-06, 02:42:04,VALID,1008.72,VALID,0,VALID,104,VALID,0,VALID,22.3887,VALID,61,VALID,0.482031,
2012-12-06, 02:43:04,VALID,1008.72,VALID,0,VALID,104,VALID,0,VALID,22.3693,VALID,61,VALID,0.317578,
2012-12-06, 02:44:04,VALID,1008.74,VALID,0,VALID,104,VALID,0.112112,VALID,22.3303,VALID,61,VALID,0.212109,
2012-12-06, 02:45:04,VALID,1008.73,VALID,0,VALID,104,VALID,0.112112,VALID,22.3091,VALID,61,VALID,0,
2012-12-06, 02:46:04,VALID,1008.75,VALID,0,VALID,104,VALID,0,VALID,22.3108,VALID,61,VALID,0,
2012-12-06, 02:47:04,VALID,1008.75,VALID,0,VALID,104,VALID,0,VALID,22.2914,VALID,61,VALID,0,
2012-12-06, 02:48:04,VALID,1008.78,VALID,0,VALID,104,VALID,0,VALID,22.2702,VALID,61,VALID,0,
2012-12-06, 02:49:04,VALID,1008.8,VALID,0,VALID,104,VALID,0,VALID,22.2914,VALID,61,VALID,0.0433594,
2012-12-06, 02:50:04,VALID,1008.79,VALID,0,VALID,104,VALID,0,VALID,22.3108,VALID,61,VALID,0.350391,
2012-12-06, 02:51:04,VALID,1008.79,VALID,0,VALID,104,VALID,0.112112,VALID,22.2702,VALID,61,VALID,0.378906,
2012-12-06, 02:52:04,VALID,1008.79,VALID,0,VALID,104,VALID,0,VALID,22.2914,VALID,61,VALID,0.200391,
2012-12-06, 02:53:04,VALID,1008.8,VALID,0,VALID,104,VALID,0.112112,VALID,22.2719,VALID,61,VALID,0.0714844,
2012-12-06, 02:54:04,VALID,1008.79,VALID,0,VALID,104,VALID,0,VALID,22.2719,VALID,61,VALID,0,
2012-12-06, 02:55:04,VALID,1008.77,VALID,0,VALID,104,VALID,0.112112,VALID,22.2524,VALID,61,VALID,0,
2012-12-06, 02:56:04,VALID,1008.78,VALID,0,VALID,104,VALID,0.112112,VALID,22.2507,VALID,61,VALID,0,
2012-12-06, 02:57:04,VALID,1008.75,VALID,0,VALID,104,VALID,0,VALID,22.2329,VALID,61,VALID,0,
2012-12-06, 02:58:04,VALID,1008.73,VALID,0,VALID,104,VALID,0.112112,VALID,22.2134,VALID,61,VALID,0,
2012-12-06, 02:59:04,VALID,1008.73,VALID,0,VALID,104,VALID,0.112112,VALID,22.1745,VALID,61,VALID,0,
2012-12-06, 03:00:04,VALID,1008.72,VALID,0,VALID,104,VALID,0.112112,VALID,22.194,VALID,61,VALID,0,
2012-12-06, 03:01:04,VALID,1008.7,VALID,0,VALID,104,VALID,0.112112,VALID,22.194,VALID,61,VALID,0,
2012-12-06, 03:02:04,VALID,1008.7,VALID,0,VALID,104,VALID,0,VALID,22.155,VALID,61,VALID,0.437891,
2012-12-06, 03:03:04,VALID,1008.71,VALID,0,VALID,104,VALID,0,VALID,22.1728,VALID,61,VALID,0.133594,
2012-12-06, 03:04:04,VALID,1008.72,VALID,0,VALID,104,VALID,0,VALID,22.194,VALID,61,VALID,0,
2012-12-06, 03:05:04,VALID,1008.74,VALID,0,VALID,104,VALID,0.112112,VALID,22.194,VALID,61,VALID,0.194531,
2012-12-06, 03:06:04,VALID,1008.74,VALID,0,VALID,104,VALID,0,VALID,22.2134,VALID,61,VALID,0.166406,
2012-12-06, 03:07:04,VALID,1008.7,VALID,0,VALID,104,VALID,0,VALID,22.2134,VALID,61,VALID,0,
2012-12-06, 03:08:04,VALID,1008.72,VALID,0,VALID,104,VALID,0,VALID,22.2134,VALID,61,VALID,0.00078125,
2012-12-06, 03:09:04,VALID,1008.77,VALID,0,VALID,104,VALID,0,VALID,22.194,VALID,61,VALID,0.254687,
2012-12-06, 03:10:04,VALID,1008.8,VALID,0,VALID,104,VALID,0,VALID,22.1745,VALID,61,VALID,0.090625,
2012-12-06, 03:11:04,VALID,1008.8,VALID,0,VALID,104,VALID,0,VALID,22.1745,VALID,61,VALID,0,
2012-12-06, 03:12:04,VALID,1008.82,VALID,0,VALID,104,VALID,0.112112,VALID,22.2134,VALID,61,VALID,0.00195313,
2012-12-06, 03:13:04,VALID,1008.8,VALID,0,VALID,104,VALID,0,VALID,22.2329,VALID,61,VALID,0,
2012-12-06, 03:14:04,VALID,1008.82,VALID,0,VALID,104,VALID,0,VALID,22.2329,VALID,61,VALID,0.205469,
2012-12-06, 03:15:04,VALID,1008.83,VALID,0,VALID,104,VALID,0,VALID,22.194,VALID,61,VALID,0.00585938,
2012-12-06, 03:16:04,VALID,1008.83,VALID,0,VALID,104,VALID,0.112112,VALID,22.2134,VALID,61,VALID,0.166797,
2012-12-06, 03:17:04,VALID,1008.86,VALID,0,VALID,104,VALID,0,VALID,22.1745,VALID,61,VALID,0.0480469,
2012-12-06, 03:18:04,VALID,1008.85,VALID,0,VALID,104,VALID,0,VALID,22.1923,VALID,61,VALID,0,
2012-12-06, 03:19:04,VALID,1008.85,VALID,0,VALID,104,VALID,0,VALID,22.2329,VALID,61,VALID,0,
2012-12-06, 03:20:04,VALID,1008.84,VALID,0,VALID,104,VALID,0,VALID,22.194,VALID,61,VALID,0,
2012-12-06, 03:21:04,VALID,1008.83,VALID,0,VALID,104,VALID,0,VALID,22.2134,VALID,61,VALID,0,
2012-12-06, 03:22:04,VALID,1008.82,VALID,0,VALID,104,VALID,0.112112,VALID,22.2134,VALID,61,VALID,0.332422,
2012-12-06, 03:23:04,VALID,1008.83,VALID,0,VALID,104,VALID,0,VALID,22.2151,VALID,61,VALID,0.248437,
2012-12-06, 03:24:04,VALID,1008.85,VALID,0,VALID,104,VALID,0,VALID,22.1957,VALID,61,VALID,0,
2012-12-06, 03:25:04,VALID,1008.86,VALID,0,VALID,104,VALID,0,VALID,22.2541,VALID,61,VALID,0.0875,
2012-12-06, 03:26:04,VALID,1008.87,VALID,0,VALID,104,VALID,0,VALID,22.2151,VALID,61,VALID,0.378906,
2012-12-06, 03:27:04,VALID,1008.85,VALID,0,VALID,104,VALID,0,VALID,22.2346,VALID,61,VALID,0.30625,
2012-12-06, 03:28:04,VALID,1008.83,VALID,0,VALID,104,VALID,0,VALID,22.2736,VALID,61,VALID,0.0882813,
2012-12-06, 03:29:05,VALID,1008.8,VALID,0,VALID,104,VALID,0,VALID,22.2329,VALID,61,VALID,0.520312,
2012-12-06, 03:30:05,VALID,1008.79,VALID,0,VALID,104,VALID,0,VALID,22.2541,VALID,61,VALID,0.464844,
2012-12-06, 03:31:05,VALID,1008.81,VALID,0,VALID,104,VALID,0,VALID,22.2736,VALID,61,VALID,0.123438,
2012-12-06, 03:32:05,VALID,1008.76,VALID,0,VALID,104,VALID,0,VALID,22.2329,VALID,61,VALID,0.0375,
2012-12-06, 03:33:05,VALID,1008.78,VALID,0,VALID,104,VALID,0,VALID,22.2329,VALID,61,VALID,0.015625,
2012-12-06, 03:34:05,VALID,1008.76,VALID,0,VALID,104,VALID,0.112112,VALID,22.2329,VALID,51,VALID,0.621875,
2012-12-06, 03:35:05,VALID,1008.79,VALID,0,VALID,104,VALID,0,VALID,22.2134,VALID,51,VALID,0.546094,
2012-12-06, 03:36:05,VALID,1008.74,VALID,0,VALID,104,VALID,0,VALID,22.2134,VALID,49,VALID,0.208984,
2012-12-06, 03:37:05,VALID,1008.77,VALID,0,VALID,104,VALID,0,VALID,22.2134,VALID,48,VALID,0.196875,
2012-12-06, 03:38:05,VALID,1008.78,VALID,0,VALID,104,VALID,0,VALID,22.194,VALID,48,VALID,0.307031,
2012-12-06, 03:39:05,VALID,1008.79,VALID,0,VALID,104,VALID,0,VALID,22.194,VALID,49,VALID,0.392969,
2012-12-06, 03:40:05,VALID,1008.81,VALID,0,VALID,104,VALID,0,VALID,22.194,VALID,48,VALID,0.21875,
2012-12-06, 03:41:05,VALID,1008.77,VALID,0,VALID,104,VALID,0,VALID,22.1745,VALID,49,VALID,0.413672,
2012-12-06, 03:42:05,VALID,1008.78,VALID,0,VALID,104,VALID,0,VALID,22.1745,VALID,48,VALID,0.176563,
2012-12-06, 03:43:05,VALID,1008.78,VALID,0,VALID,104,VALID,0,VALID,22.194,VALID,48,VALID,0.510156,
2012-12-06, 03:44:05,VALID,1008.81,VALID,0,VALID,104,VALID,0,VALID,22.1745,VALID,48,VALID,0.021875,
2012-12-06, 03:45:05,VALID,1008.83,VALID,0,VALID,104,VALID,0,VALID,22.155,VALID,48,VALID,0,
2012-12-06, 03:46:05,VALID,1008.82,VALID,0,VALID,104,VALID,0,VALID,22.194,VALID,48,VALID,0.00429688,
2012-12-06, 03:47:05,VALID,1008.83,VALID,0,VALID,104,VALID,0,VALID,22.1745,VALID,48,VALID,0.382031,
2012-12-06, 03:48:05,VALID,1008.85,VALID,0,VALID,104,VALID,0,VALID,22.194,VALID,48,VALID,0.6625,
2012-12-06, 03:49:05,VALID,1008.85,VALID,0,VALID,104,VALID,0,VALID,22.1745,VALID,46,VALID,0.798828,
2012-12-06, 03:50:05,VALID,1008.85,VALID,0,VALID,104,VALID,0,VALID,22.1745,VALID,45,VALID,0.489844,
2012-12-06, 03:51:05,VALID,1008.86,VALID,0,VALID,104,VALID,0.112112,VALID,22.155,VALID,39,VALID,0.719922,
2012-12-06, 03:52:05,VALID,1008.83,VALID,0,VALID,104,VALID,0,VALID,22.1355,VALID,45,VALID,0.700391,
2012-12-06, 03:53:05,VALID,1008.85,VALID,0,VALID,104,VALID,0,VALID,22.155,VALID,43,VALID,0.19375,
2012-12-06, 03:54:05,VALID,1008.9,VALID,0,VALID,104,VALID,0,VALID,22.1355,VALID,43,VALID,0.16875,
2012-12-06, 03:55:05,VALID,1008.88,VALID,0,VALID,104,VALID,0,VALID,22.1355,VALID,44,VALID,0.544531,
2012-12-06, 03:56:05,VALID,1008.89,VALID,0,VALID,104,VALID,0.112112,VALID,22.1144,VALID,43,VALID,0.479688,
2012-12-06, 03:57:05,VALID,1008.92,VALID,0,VALID,104,VALID,0.112112,VALID,22.1355,VALID,43,VALID,0.511719,
2012-12-06, 03:58:05,VALID,1008.91,VALID,0,VALID,104,VALID,0,VALID,22.0754,VALID,43,VALID,0.242188,
2012-12-06, 03:59:05,VALID,1008.93,VALID,0,VALID,104,VALID,0,VALID,22.1355,VALID,43,VALID,0,
2012-12-06, 04:00:05,VALID,1008.95,VALID,0,VALID,104,VALID,0,VALID,22.0966,VALID,43,VALID,0,